Weather History for Ahmedabad, India

Change the Weather History Date:

Sunday, December 30, 2012

  Actual Average Record
Temperature  
Mean Temperature 66 °F -  
Max Temperature 81 °F 78 °F 84 °F (1996)
Min Temperature 52 °F 53 °F 46 °F (1998)
Cooling Degree Days 2    
Growing Degree Days 16 (Base 50)    
Moisture  
Dew Point 49 °F    
Average Humidity 54    
Maximum Humidity 77    
Minimum Humidity 32    
Precipitation  
Precipitation 0.00 in 0.00 in - ()
Sea Level Pressure  
Sea Level Pressure 29.86 in    
Wind  
Wind Speed 4 mph ()    
Max Wind Speed 12 mph    
Max Gust Speed -    
Visibility 2.7 miles    
Events      
Averages and records for this station are not official NWS values.
T = Trace of Precipitation, MM = Missing Value Source: Averaged Metar Reports

Daily Weather History Graph

Daily Weather History Graph

Search for Another Location

Airport:

Trip Planner

Search our weather history database for the weather conditions in past years. The results will help you decide how hot, cold, wet, or windy it might be!

Date:

Astronomy

Dec. 30, 2012 Rise Set
Actual Time 7:19 AM IST 6:04 PM IST
Civil Twilight 6:55 AM IST 6:28 PM IST
Nautical Twilight 6:27 AM IST 6:56 PM IST
Astronomical Twilight 5:59 AM IST 7:24 PM IST
Moon 7:54 PM IST (12/30) 8:25 AM IST (12/30)
Length of Visible Light 11h 33m
Length of Day
10h 44m
Full, 97% of the Moon is Illuminated
Dec 30
Full
Jan 5
Last Quarter
Jan 12
New
Jan 19
First Quarter
Jan 27
Full

Hourly Weather History & Observations

Time (IST) Temp. Heat Index Dew Point Humidity Pressure Visibility Wind Dir Wind Speed Gust Speed Precip Events Conditions
12:10 AM 59.0 °F - 41.0 °F 51% 29.86 in 2.5 mi North 4.6 mph - N/A   Smoke
12:40 AM 59.0 °F - 42.8 °F 55% 29.86 in 2.5 mi North 4.6 mph - N/A   Smoke
1:10 AM 57.2 °F - 42.8 °F 59% 29.86 in 2.5 mi NNE 4.6 mph - N/A   Smoke
1:40 AM 57.2 °F - 44.6 °F 63% 29.86 in 2.5 mi North 3.5 mph - N/A   Smoke
2:10 AM 55.4 °F - 44.6 °F 67% 29.83 in 2.5 mi North 5.8 mph - N/A   Smoke
2:30 AM 58 °F - 49 °F 65% 29.88 in 2 mi NW 2.3 mph - -  
2:40 AM 55.4 °F - 44.6 °F 67% 29.83 in 2.5 mi NNE 4.6 mph - N/A   Haze
3:10 AM 55.4 °F - 44.6 °F 67% 29.83 in 2.5 mi NNE 4.6 mph - N/A   Haze
3:40 AM 55.4 °F - 44.6 °F 67% 29.83 in 2.5 mi Calm Calm - N/A   Haze
4:10 AM 55.4 °F - 44.6 °F 67% 29.86 in 2.5 mi Calm Calm - N/A   Smoke
4:40 AM 53.6 °F - 46.4 °F 77% 29.86 in 2.5 mi Calm Calm - N/A   Smoke
5:10 AM 53.6 °F - 44.6 °F 72% 29.86 in 2.5 mi Calm Calm - N/A   Smoke
5:30 AM 56 °F - 49 °F 69% 29.88 in 2 mi North 2.3 mph - -   Haze
6:10 AM 53.6 °F - 44.6 °F 72% 29.86 in 2.5 mi Variable 2.3 mph - N/A   Smoke
6:40 AM 53.6 °F - 44.6 °F 72% 29.86 in 2.5 mi Variable 2.3 mph - N/A   Smoke
7:10 AM 51.8 °F - 44.6 °F 76% 29.89 in 2.5 mi NE 2.3 mph - N/A   Smoke
7:40 AM 51.8 °F - 44.6 °F 76% 29.89 in 1.6 mi NE 3.5 mph - N/A   Haze
8:10 AM 55.4 °F - 44.6 °F 67% 29.89 in 1.6 mi NE 3.5 mph - N/A   Haze
8:30 AM 58 °F - 50 °F 66% 29.92 in 1 mi North 3.5 mph - -   Haze
8:40 AM 57.2 °F - 44.6 °F 63% 29.92 in 1.6 mi NE 6.9 mph - N/A   Haze
9:40 AM 62.6 °F - 44.6 °F 52% 29.92 in 2.5 mi ENE 5.8 mph - N/A   Smoke
10:40 AM 69.8 °F - 48.2 °F 46% 29.92 in 3.1 mi ENE 11.5 mph - N/A   Smoke
11:10 AM 71.6 °F - 50.0 °F 46% 29.92 in 3.1 mi ENE 9.2 mph - N/A   Smoke
11:30 AM 72 °F - 54 °F 42% 29.94 in 2 mi NE 4.6 mph - -   Partly Cloudy
11:40 AM 73.4 °F - 50.0 °F 44% 29.92 in 3.1 mi ENE 6.9 mph - N/A   Smoke
12:10 PM 77.0 °F - 51.8 °F 41% 29.89 in 3.7 mi ENE 5.8 mph - N/A   Unknown
12:40 PM 77.0 °F - 51.8 °F 41% 29.86 in 3.7 mi ENE 5.8 mph - N/A   Unknown
1:10 PM 78.8 °F - 51.8 °F 39% 29.86 in 3.7 mi ENE 5.8 mph - N/A   Unknown
1:40 PM 80.6 °F - 51.8 °F 37% 29.83 in 3.7 mi ENE 5.8 mph - N/A   Unknown
2:10 PM 80.6 °F - 51.8 °F 37% 29.83 in 3.7 mi NE 6.9 mph - N/A   Unknown
2:30 PM 80 °F - 56 °F 32% 29.85 in 2 mi NE 4.6 mph - -   Scattered Clouds
2:40 PM 82.4 °F 81.4 °F 53.6 °F 37% 29.80 in 3.7 mi NE 9.2 mph - N/A   Unknown
3:10 PM 82.4 °F - 51.8 °F 35% 29.80 in 3.7 mi NE 9.2 mph - N/A   Unknown
3:40 PM 82.4 °F - 51.8 °F 35% 29.80 in 3.7 mi NNE 6.9 mph - N/A   Unknown
4:10 PM 80.6 °F - 51.8 °F 37% 29.80 in 3.7 mi NNE 6.9 mph - N/A   Unknown
4:40 PM 80.6 °F - 51.8 °F 37% 29.80 in 3.7 mi NNE 5.8 mph - N/A   Unknown
5:10 PM 80.6 °F - 51.8 °F 37% 29.80 in 3.7 mi NNE 5.8 mph - N/A   Unknown
5:30 PM 78 °F - 56 °F 37% 29.84 in 2 mi NNW 4.6 mph - -   Clear
5:40 PM 77.0 °F - 53.6 °F 44% 29.80 in 3.7 mi North 3.5 mph - N/A   Unknown
7:10 PM 71.6 °F - 53.6 °F 53% 29.83 in 2.5 mi Calm Calm - N/A   Smoke
7:40 PM 69.8 °F - 51.8 °F 53% 29.86 in 2.5 mi North 5.8 mph - N/A   Smoke
8:10 PM 69.8 °F - 50.0 °F 49% 29.86 in 2.5 mi North 4.6 mph - N/A   Smoke
8:30 PM 70 °F - 55 °F 49% 29.89 in 2 mi North 4.6 mph - -  
8:40 PM 68.0 °F - 50.0 °F 52% 29.86 in 2.5 mi North 4.6 mph - N/A   Smoke
9:10 PM 66.2 °F - 50.0 °F 56% 29.89 in 2.5 mi North 4.6 mph - N/A   Smoke
9:40 PM 64.4 °F - 48.2 °F 56% 29.89 in 2.5 mi North 5.8 mph - N/A   Smoke
10:10 PM 64.4 °F - 48.2 °F 56% 29.89 in 2.5 mi North 5.8 mph - N/A   Smoke
10:40 PM 62.6 °F - 48.2 °F 59% 29.89 in 2.5 mi North 3.5 mph - N/A   Smoke
11:10 PM 62.6 °F - 48.2 °F 59% 29.86 in 2.5 mi North 3.5 mph - N/A   Haze
11:30 PM 64 °F - 53 °F 57% 29.90 in 2 mi North 3.5 mph - -  
11:40 PM 60.8 °F - 48.2 °F 63% 29.86 in 2.5 mi North 3.5 mph - N/A   Haze